Regional Weather Roundup
Issued by NWS

Home | Current Version | Previous Version | Graphics & Text | Print | Product List | Glossary Off
Versions: 1 2 3 4 5 6 7 8 9 10 11 12 13 14 15 16 17 18 19 20 21 22 23 24 25 26 27 28 29 30 31 32 33 34 35 36 37 38 39 40 41 42 43 44 45 46 47 48 49 50

000
ASUS43 KMKX 120359
RWRWI

WISCONSIN REGIONAL WEATHER ROUNDUP
NATIONAL WEATHER SERVICE MILWAUKEE/SULLIVAN WI
1000 PM CST THU FEB 11 2016

NOTE: "FAIR" INDICATES FEW OR NO CLOUDS BELOW 12,000 FEET WITH NO
SIGNIFICANT WEATHER AND/OR OBSTRUCTIONS TO VISIBILITY.

WIZ001-002-006>008-014>016-023>028-120500-
NORTHWEST WISCONSIN

CITY           SKY/WX    TMP DP  RH WIND       PRES   REMARKS
SUPERIOR ARPT  CLOUDY    14   1  57 W7        30.19S WCI   4
ASHLAND        CLOUDY    13  -1  54 W9        30.15F WCI   1
HAYWARD        CLOUDY    12  -1  56 W5        30.14F WCI   4
SIREN          CLOUDY    13   4  67 W7        30.19F WCI   3
CUMBERLAND     CLOUDY    12   1  62 W12       30.16F WCI  -2
RICE LAKE      CLOUDY    13   3  64 W5        30.19F WCI   6
CHETEK         CLOUDY    13   1  59 W3        30.18F
LADYSMITH      CLOUDY    13   1  59 W8        30.17S WCI   2
EAU CLAIRE     NOT AVBL
MENOMONIE      CLOUDY    16   3  57 SW7       30.21F WCI   6
NEW RICHMOND   CLOUDY    14   6  72 W9        30.21S WCI   2
OSCEOLA        FLURRIES  15   9  76 W5        30.25S WCI   7
$$

WIZ003>005-009-010-017-018-120500-
NORTH CENTRAL WISCONSIN

CITY           SKY/WX    TMP DP  RH WIND       PRES   REMARKS
MANITOWISH WTR CLOUDY     9  -4  54 W8        30.06S WCI  -3
ARBOR VITAE    CLOUDY    12  -4  48 W9        30.06F WCI  -1
WOODRUFF       CLOUDY    12  -4  48 W9        30.06F WCI  -1
RHINELANDER    CLOUDY    10  -3  55 W14       30.07S WCI  -6
EAGLE RIVER    CLOUDY    11  -6  46 W9        30.04F WCI  -2
LAND O LAKES   CLOUDY    11  -5  49 W8        30.04F WCI  -1
PHILLIPS       CLOUDY    10  -3  55 W5        30.10F WCI   2
TOMAHAWK       CLOUDY    10  -3  54 W7        30.11S WCI   0
MEDFORD        CLOUDY    11  -1  57 W9        30.12S WCI  -1
MERRILL        CLOUDY    12  -2  53 W10       30.12F WCI  -1
$$

WIZ029-030-035-036-043>047-120500-
CENTRAL WISCONSIN

CITY           SKY/WX    TMP DP  RH WIND       PRES   REMARKS
WAUSAU         CLOUDY    14  -1  51 W13       30.13F WCI   0
MOSINEE        CLOUDY    12   0  57 W9        30.15F WCI   0
MARSHFIELD     CLOUDY    14  -1  51 W9        30.14F WCI   2
STEVENS POINT  CLOUDY    13  -4  47 SW7       30.16F WCI   3
WAUPACA        CLOUDY    18  -2  41 W10       30.18F WCI   6
WAUTOMA        NOT AVBL
WISC RAPIDS    CLOUDY    15  -3  44 W9        30.19F WCI   3
CAMP DOUGLAS   CLOUDY    14   2  57 W13       30.20F WCI   0
$$

WIZ011>013-019>022-031-037>040-048>050-120500-
NORTHEAST WISCONSIN

CITY           SKY/WX    TMP DP  RH WIND       PRES   REMARKS
ANTIGO         CLOUDY    10  -3  55 W10       30.09S WCI  -4
SHAWANO        CLOUDY    17  -1  45 W6        30.16F WCI   8
OCONTO         CLOUDY    15  -2  46 W9        30.15F WCI   3
STURGEON BAY   CLOUDY    14  -2  48 SW14      30.15F WCI  -1
GREEN BAY      CLOUDY    15   0  51 SW8       30.17F WCI   4
MANITOWOC      NOT AVBL
APPLETON       CLOUDY    16  -2  45 SW10      30.15F WCI   3
CLINTONVILLE   CLOUDY    14   0  52 W7        30.16F WCI   4
OSHKOSH        CLOUDY    14   0  53 W5        30.19F WCI   6
$$

WIZ032>034-041-042-053>061-120500-
SOUTHWEST WISCONSIN

CITY           SKY/WX    TMP DP  RH WIND       PRES   REMARKS
LA CROSSE      CLOUDY    15   2  56 SW6       30.25F WCI   6
SPARTA         CLOUDY    15   0  52 SW6       30.24F WCI   6
VIROQUA        CLOUDY    12   3  67 W6        30.20S WCI   3
BOSCOBEL       CLOUDY    15   4  61 SW3       30.27F
PRAIRIE DU CHI CLOUDY    13   3  62 CALM      30.27F
PLATTEVILLE    MOCLDY    12   1  61 W5        30.25R WCI   4
$$

WIZ056-057-062-063-064-067-068-120500-
SOUTH CENTRAL WISCONSIN

CITY           SKY/WX    TMP DP  RH WIND       PRES   REMARKS
REEDSBURG      CLOUDY    15   2  56 SW7       30.21F WCI   5
BARABOO/DELLS  CLOUDY    15   1  53 W10       30.20F WCI   2
LONE ROCK      NOT AVBL
MINERAL POINT  CLOUDY    14   1  57 W5        30.22S WCI   6
MADISON        CLOUDY    16   0  49 CALM      30.22F
MIDDLETON      CLOUDY    17   3  52 W7        30.22F WCI   8
WATERTOWN      CLOUDY    15   2  57 W6        30.22F WCI   6
MONROE         CLOUDY    14   3  62 W8        30.22S WCI   3
JANESVILLE     CLOUDY    19   5  53 W6        30.24F WCI  11
$$

WIZ051-052-058>065-066-070>072-120500-
SOUTHEAST WISCONSIN

CITY           SKY/WX    TMP DP  RH WIND       PRES   REMARKS
MILWAUKEE      CLOUDY    15   1  53 W7        30.23F WCI   5
WAUKESHA       CLOUDY    14   0  52 SW6       30.23S WCI   5
MILWAUKEE/TIMM CLOUDY    18   0  45 W8        30.23F WCI   7
RACINE         CLOUDY    17   3  54 W7        30.25F WCI   8
BURLINGTON     CLOUDY    14   5  68 SW3       30.23F
KENOSHA        CLOUDY    15   5  64 SW5       30.24F WCI   8
FOND DU LAC    CLOUDY    14   1  56 SW7       30.20F WCI   4
SHEBOYGAN      CLOUDY    15   0  51 W12       30.19F WCI   2
WEST BEND      CLOUDY    16   0  48 CALM      30.20F
JUNEAU         CLOUDY    13   1  59 SW7       30.22F WCI   3
$$

LSZ147-162-120500-
LAKE SUPERIOR

STATION/POSITION TIME  TEMP    WIND        PRES    WAVE
                       AIR SEA DIR/SP/G            HT/PER
                 (UTC) (F)     (DEG/KT/KT) (MB)    (FT/S)
DEVILS ISLAND    0300   16     290/ 22/ 28 1021.9R
PORT WING        0300   17     270/ 13/ 21 1021.7
SAXON HARBOR     0300   14                 1020.7F
$$

LMZ867-665-643>646-120500-
LAKE MICHIGAN

STATION/POSITION TIME  TEMP    WIND        PRES    WAVE
                       AIR SEA DIR/SP/G            HT/PER
                 (UTC) (F)     (DEG/KT/KT) (MB)    (FT/S)
CHAMBERS ISLAND  0300   17     210/ 10/ 18 1020.3
ALGOMA LAKESHORE 0311          270/  7/ 13   N/A
KEWAUNEE LAKESHO 0300   14                 1021.0
SHEBOYGAN LAKESH 0300   15     230/  8/  9 1024.7F
PORT WASHINGTON  0300   14     250/  2/  4 1024.7F
MILWAUKEE LAKESH 0310   19     250/  8/ 10   N/A
KENOSHA   LAKESH 0300   17     250/  6/  9 1024.4F
$$

TC  - TEMPERATURE IN CELSIUS
VSB - VISIBILITY IN STATUTE MILES
WCI - WIND CHILL INDEX
HX  - HEAT INDEX





USA.gov is the U.S. government's official web portal to all federal, state and local government web resources and services.